Wind_Speed
16 15 15 15 15 16 17 17 17 17 17 17 17 17 17 17 17 16 16 16 16 16 16 16 15 15 15 16 16 16 17 17 17 16 16 16 16 16 17 18 18 18 18
17 16 15 15 15 16 16 16 15 15 15 16 16 16 17 17 18 18 18 18 18 18 18 18 18 17 17 17 17 18 18 18 17 17 17 17 17 17 18 18 19 19 19
18 17 17 16 17 17 17 16 16 16 16 16 16 15 16 17 18 19 19 19 19 19 19 19 19 19 18 18 19 19 19 19 18 18 17 17 17 17 18 18 19 20 21
18 17 17 17 17 17 17 17 17 17 17 17 17 17 17 18 18 19 19 19 19 20 20 20 20 20 20 19 20 20 19 19 18 18 17 17 18 18 18 19 20 21 22
19 18 17 18 18 18 17 17 18 18 18 18 18 18 19 19 19 19 19 19 19 19 20 20 20 20 20 21 21 21 20 20 19 19 18 18 18 19 19 20 21 22 23
21 21 20 20 20 20 19 19 18 19 19 20 20 20 20 20 20 20 20 20 20 20 20 20 20 21 21 21 22 22 21 21 20 20 19 19 19 20 20 21 21 22 23
25 25 24 24 23 22 22 21 20 20 20 20 20 20 20 19 19 19 19 19 19 20 20 20 20 21 22 22 22 22 22 21 21 21 20 20 21 22 22 23 23 23 22
29 28 28 27 26 25 24 23 22 21 21 20 20 19 19 18 18 18 18 19 19 20 20 21 21 21 22 22 23 23 22 22 22 22 22 23 23 24 25 25 25 24 24
30 30 30 29 28 27 26 25 24 23 22 21 20 19 19 18 17 17 18 18 19 19 20 21 21 21 21 22 23 23 23 23 23 24 25 25 26 27 27 27 27 27 26
30 30 30 30 29 28 28 27 26 25 23 21 21 20 19 19 18 17 18 19 19 20 20 20 21 21 21 22 23 23 24 25 26 27 28 29 30 31 31 31 31 30 29
28 29 30 30 30 29 29 28 28 26 25 23 22 21 20 20 19 19 18 19 19 20 20 20 20 21 21 22 23 24 26 27 29 31 32 33 34 34 35 35 34 34 32
28 29 29 29 30 30 29 29 28 28 26 25 24 23 22 21 21 20 19 19 20 20 21 21 21 21 22 22 23 24 25 27 30 32 34 35 36 36 36 36 36 36 35
29 29 28 28 29 29 29 29 29 29 28 27 26 25 24 24 22 21 21 21 21 21 22 22 22 22 22 22 23 24 25 26 28 30 31 32 33 33 34 34 34 35 35
29 29 30 29 29 28 29 29 29 29 29 29 29 27 26 26 25 23 23 23 23 23 23 24 24 24 24 24 24 25 26 26 27 29 29 30 31 31 32 32 32 32 32
29 30 31 31 30 30 30 30 30 30 31 31 30 29 28 28 27 26 26 26 25 25 25 25 25 25 25 25 26 27 27 28 29 30 31 31 32 32 32 32 31 30 30
29 30 33 33 33 32 31 31 31 32 32 32 31 30 29 29 29 28 28 28 28 27 27 27 26 26 26 26 27 28 29 29 30 31 32 33 33 33 33 32 31 31 30
30 31 33 35 36 35 33 33 33 33 33 32 31 30 29 30 30 30 29 30 29 29 28 28 28 28 28 28 28 29 30 30 30 31 32 33 34 34 33 33 32 32 32
32 33 34 36 37 37 36 36 36 35 34 33 32 31 30 30 30 30 30 31 30 30 30 30 30 30 30 30 30 31 31 31 32 32 33 34 34 34 33 33 33 33 34
36 36 36 37 38 39 39 39 38 38 36 35 34 32 31 31 31 31 31 32 31 31 32 32 32 31 31 32 32 32 32 33 33 34 34 35 35 34 33 33 33 33 34
39 39 39 39 40 41 41 41 41 39 38 37 36 35 35 34 34 33 33 33 33 33 33 33 33 33 33 33 33 33 33 34 34 35 35 36 35 34 34 34 34 35 36
42 42 42 42 42 43 43 44 43 42 41 41 40 39 39 37 36 35 35 35 35 34 34 34 34 34 34 34 34 34 34 34 35 36 36 36 35 35 35 35 36 36 37
45 45 44 45 45 46 46 46 46 46 45 45 45 44 41 39 38 38 38 38 38 37 37 36 36 35 35 35 35 35 35 36 36 36 36 36 36 36 37 37 37 38 38
48 47 48 48 49 49 50 50 49 49 49 48 47 45 43 42 42 42 42 42 41 40 39 38 38 38 38 38 38 38 37 37 38 38 38 37 37 38 39 39 39 40 40
48 49 49 50 51 52 53 53 52 51 50 49 47 47 46 46 46 46 46 46 45 44 43 42 41 40 40 40 40 39 39 40 39 39 39 39 39 40 41 41 41 42 42
48 48 49 50 51 53 55 56 56 55 54 52 51 50 50 49 49 49 49 49 48 48 46 45 44 43 42 41 41 41 41 41 41 41 40 41 41 42 43 43 44 45 45
47 48 50 51 52 54 55 57 58 58 57 56 54 53 52 52 51 50 50 50 50 50 49 48 47 46 44 43 43 43 43 43 43 43 43 43 43 44 45 46 47 48 48
Wind_Direction
254 254 257 261 265 266 268 269 271 272 272 270 269 268 266 266 268 273 279 285 290 294 293 290 288 286 283 280 278 279 281 283 285 286 287 288 287 287 286 287 289 290 290
258 256 258 263 266 269 271 274 276 277 277 276 274 272 270 267 266 268 272 277 281 284 285 284 282 281 280 279 277 277 278 279 281 283 285 286 287 288 289 291 292 293 293
256 257 258 260 264 268 272 276 278 280 282 283 282 281 280 277 274 273 274 276 279 281 281 280 278 277 276 276 276 277 277 278 279 280 281 282 284 287 289 291 293 295 295
255 256 257 259 262 267 271 274 277 280 283 285 286 286 286 285 283 282 281 280 280 280 280 279 277 274 273 272 273 274 275 277 278 277 278 280 283 287 291 294 297 298 298
258 258 259 260 263 266 270 273 277 280 283 285 286 286 287 288 288 288 287 284 282 280 280 280 278 276 273 271 271 271 272 273 274 274 276 280 285 290 295 298 300 300 300
261 262 261 262 263 266 270 273 277 281 283 285 286 286 287 289 290 290 290 289 285 282 281 280 279 277 275 273 272 271 272 272 273 274 276 280 285 291 296 300 303 305 304
263 263 264 265 265 267 269 271 274 278 282 284 285 286 288 291 293 293 293 293 289 286 282 280 279 278 277 275 273 271 271 271 273 274 276 280 285 290 295 299 303 305 307
263 264 266 267 267 268 268 270 273 276 279 282 285 286 287 290 292 294 295 296 293 288 284 280 279 279 278 275 273 270 268 268 269 271 274 279 283 288 293 297 300 303 304
260 262 264 266 268 269 270 271 273 275 277 280 283 286 287 287 288 290 292 293 292 290 286 281 279 278 276 274 271 267 265 264 264 267 272 278 283 288 292 295 297 299 300
257 259 262 263 266 268 270 271 272 273 275 277 280 284 285 285 286 287 289 290 291 289 286 283 281 279 277 275 272 268 265 264 264 267 271 276 281 285 289 291 293 294 294
254 257 259 262 264 266 268 270 271 273 274 276 279 281 283 284 284 285 286 288 289 288 286 283 281 281 280 278 276 273 271 270 270 271 273 276 280 283 285 287 287 288 288
252 254 257 260 263 264 266 268 270 273 274 275 277 279 281 282 281 281 282 283 284 285 285 284 282 281 281 281 281 280 278 277 276 276 277 278 281 283 284 285 285 284 284
251 254 256 258 261 263 264 266 268 271 273 274 275 276 278 278 278 278 278 279 280 281 282 282 282 281 282 284 284 285 284 283 282 282 282 283 284 285 287 288 288 286 284
251 253 255 256 257 260 262 263 265 268 270 271 272 273 274 274 274 274 275 276 276 277 278 279 279 280 282 284 286 287 287 287 287 286 286 286 287 288 289 290 290 289 287
253 253 254 254 254 254 257 260 262 264 265 267 269 270 271 271 272 272 273 273 274 274 276 277 278 279 281 284 286 287 288 288 288 288 288 289 289 290 291 291 290 288 287
251 251 252 253 252 252 254 257 259 261 263 265 267 268 268 269 270 270 269 270 271 273 275 277 277 279 282 284 286 287 288 289 289 289 289 290 290 290 291 290 289 287 285
250 250 252 253 254 254 254 255 258 260 262 264 266 267 267 267 268 268 268 268 269 272 274 275 276 279 282 285 286 287 288 288 289 290 290 291 291 290 290 289 288 285 283
250 250 251 252 254 254 254 254 256 258 260 262 264 266 266 267 267 267 267 267 269 271 272 274 277 280 283 285 286 287 287 289 290 291 292 292 292 291 289 288 286 285 283
252 252 252 253 254 255 255 254 255 256 258 260 263 264 265 265 265 266 267 268 269 270 272 274 277 280 283 284 285 286 288 289 290 291 292 293 293 292 290 289 287 286 284
253 253 254 254 255 256 257 257 257 257 258 260 261 261 261 262 263 266 267 268 268 269 271 273 276 279 281 283 284 286 288 289 290 292 293 293 293 293 291 290 289 288 287
256 255 255 255 255 255 255 256 257 257 258 258 258 258 258 260 263 265 267 267 268 268 269 272 274 277 279 281 283 286 288 289 290 292 293 293 293 293 293 292 292 291 290
259 259 258 257 257 256 255 255 256 256 256 256 256 257 258 260 262 264 264 265 265 266 268 270 272 274 277 279 282 284 287 288 290 291 292 293 293 294 294 294 294 293 293
262 261 260 259 258 257 257 256 255 254 255 255 257 258 259 259 259 260 261 262 263 265 267 269 270 273 275 277 280 283 285 287 288 290 292 293 294 294 295 295 295 294 294
264 263 263 262 261 260 259 258 257 256 255 255 255 255 254 254 255 257 259 261 263 264 266 268 270 272 274 276 279 281 284 286 287 289 290 292 294 295 296 296 295 295 294
266 266 265 265 264 263 262 261 259 258 257 256 255 254 255 255 256 258 259 260 262 264 266 268 269 272 273 275 278 281 283 284 286 287 288 290 292 294 295 295 294 294 294
267 267 267 266 265 264 263 262 261 260 259 258 257 255 255 255 255 256 258 260 262 264 265 267 268 270 272 275 277 279 281 283 285 286 287 289 291 293 294 294 294 294 294
Height
5869 5870 5870 5871 5871 5872 5872 5873 5873 5874 5874 5874 5875 5875 5876 5876 5877 5877 5877 5877 5877 5877 5877 5877 5877 5877 5877 5877 5878 5878 5878 5877 5877 5877 5877 5877 5877 5876 5876 5875 5874 5874 5874
5866 5867 5868 5868 5869 5869 5870 5870 5871 5871 5871 5872 5872 5872 5873 5873 5874 5874 5875 5875 5875 5875 5875 5875 5875 5875 5874 5874 5874 5875 5875 5875 5874 5874 5874 5874 5874 5873 5873 5872 5872 5871 5871
5863 5864 5865 5865 5866 5866 5867 5868 5868 5868 5868 5869 5869 5869 5869 5870 5870 5871 5871 5872 5872 5872 5872 5872 5872 5872 5872 5872 5871 5871 5871 5871 5871 5871 5871 5871 5870 5870 5870 5869 5868 5868 5867
5860 5861 5862 5863 5863 5864 5864 5865 5865 5865 5866 5866 5866 5866 5866 5867 5867 5867 5868 5868 5869 5869 5869 5869 5869 5869 5869 5869 5868 5868 5868 5868 5868 5868 5868 5868 5867 5867 5866 5865 5865 5864 5863
5857 5858 5859 5860 5860 5861 5861 5862 5862 5863 5863 5863 5863 5863 5864 5864 5864 5864 5864 5865 5865 5865 5865 5866 5866 5866 5866 5865 5865 5864 5864 5865 5865 5865 5865 5864 5864 5864 5863 5862 5861 5860 5859
5854 5855 5856 5857 5857 5858 5859 5859 5860 5860 5860 5860 5860 5860 5860 5861 5861 5861 5861 5861 5861 5862 5862 5862 5862 5862 5862 5862 5861 5861 5861 5861 5861 5861 5861 5861 5861 5860 5860 5859 5858 5856 5855
5851 5852 5852 5853 5854 5855 5855 5856 5857 5857 5857 5857 5857 5857 5857 5857 5857 5857 5858 5858 5858 5858 5858 5858 5858 5858 5858 5858 5858 5858 5858 5858 5858 5858 5858 5857 5857 5856 5856 5855 5854 5853 5851
5847 5848 5849 5850 5850 5851 5852 5852 5853 5854 5854 5854 5854 5854 5854 5854 5854 5854 5854 5854 5854 5855 5855 5855 5854 5854 5854 5854 5854 5854 5854 5854 5854 5854 5854 5853 5853 5852 5852 5851 5850 5849 5848
5843 5844 5845 5845 5846 5847 5848 5848 5849 5849 5850 5850 5851 5851 5851 5851 5851 5851 5851 5851 5851 5851 5851 5851 5851 5850 5850 5850 5850 5850 5850 5850 5850 5850 5849 5849 5848 5848 5847 5846 5846 5845 5844
5838 5839 5840 5841 5842 5843 5844 5844 5845 5845 5846 5846 5847 5847 5847 5848 5847 5847 5847 5847 5847 5847 5847 5847 5847 5846 5845 5845 5846 5846 5846 5846 5845 5845 5844 5844 5843 5843 5842 5841 5840 5840 5839
5832 5833 5835 5836 5837 5838 5839 5840 5840 5841 5841 5842 5843 5843 5843 5844 5844 5844 5844 5843 5843 5843 5843 5843 5842 5842 5841 5841 5841 5841 5841 5841 5840 5840 5839 5839 5838 5837 5837 5836 5834 5834 5833
5826 5827 5829 5831 5832 5833 5834 5835 5835 5836 5837 5837 5838 5838 5839 5839 5840 5840 5840 5839 5839 5839 5839 5838 5838 5838 5837 5837 5836 5836 5836 5836 5835 5834 5834 5833 5832 5831 5830 5829 5828 5827 5827
5820 5822 5824 5825 5826 5828 5829 5830 5830 5831 5831 5832 5833 5833 5834 5834 5835 5835 5835 5835 5835 5834 5834 5834 5834 5834 5833 5832 5832 5831 5831 5830 5829 5829 5828 5827 5826 5825 5824 5823 5821 5820 5820
5815 5816 5817 5819 5820 5822 5823 5824 5825 5826 5826 5827 5827 5828 5829 5829 5829 5830 5830 5830 5830 5830 5829 5829 5829 5829 5828 5827 5827 5826 5826 5825 5824 5823 5822 5821 5820 5818 5817 5816 5815 5814 5813
5810 5811 5811 5812 5814 5815 5817 5818 5819 5820 5820 5821 5822 5823 5823 5823 5824 5824 5824 5824 5824 5824 5824 5824 5823 5823 5823 5822 5821 5821 5820 5819 5818 5817 5815 5814 5813 5812 5811 5809 5808 5807 5806
5805 5805 5805 5806 5807 5809 5810 5812 5813 5813 5814 5815 5816 5817 5817 5817 5817 5818 5818 5818 5818 5818 5818 5818 5817 5817 5817 5816 5816 5815 5814 5813 5812 5810 5809 5808 5806 5805 5804 5803 5801 5800 5799
5799 5799 5799 5800 5801 5802 5804 5805 5806 5807 5807 5808 5810 5810 5811 5811 5811 5811 5811 5811 5811 5812 5812 5812 5811 5811 5811 5810 5810 5809 5808 5806 5805 5804 5803 5801 5800 5798 5797 5796 5794 5793 5792
5791 5792 5793 5794 5795 5796 5797 5798 5798 5799 5800 5802 5803 5804 5805 5805 5805 5804 5805 5805 5805 5805 5805 5805 5805 5805 5804 5804 5803 5802 5801 5800 5799 5797 5796 5794 5793 5791 5790 5789 5787 5786 5785
5783 5784 5785 5786 5787 5788 5789 5790 5791 5792 5793 5794 5795 5797 5797 5798 5798 5798 5798 5798 5798 5798 5798 5798 5798 5798 5798 5797 5797 5795 5794 5793 5792 5790 5789 5787 5785 5784 5782 5781 5780 5778 5777
5774 5776 5777 5778 5779 5780 5781 5782 5783 5784 5785 5787 5787 5788 5789 5789 5790 5791 5791 5791 5791 5791 5791 5791 5791 5791 5791 5790 5790 5789 5787 5786 5785 5783 5781 5779 5778 5776 5775 5773 5772 5770 5769
5765 5767 5768 5769 5770 5771 5772 5773 5774 5776 5777 5778 5779 5779 5780 5781 5782 5783 5784 5784 5784 5784 5784 5784 5784 5784 5784 5783 5782 5781 5780 5779 5777 5776 5774 5772 5770 5768 5767 5765 5763 5761 5760
5756 5757 5758 5759 5760 5761 5762 5764 5765 5766 5768 5768 5769 5770 5772 5774 5775 5775 5775 5775 5775 5776 5776 5776 5777 5776 5776 5776 5775 5774 5773 5772 5769 5768 5766 5764 5762 5760 5759 5757 5755 5753 5750
5746 5747 5748 5749 5749 5750 5751 5752 5754 5755 5757 5758 5760 5762 5764 5764 5765 5765 5765 5766 5767 5767 5768 5768 5768 5768 5768 5768 5767 5766 5765 5763 5761 5760 5758 5756 5754 5752 5750 5748 5746 5743 5741
5736 5736 5737 5738 5738 5739 5739 5741 5742 5745 5747 5749 5750 5751 5752 5753 5754 5755 5756 5757 5757 5758 5759 5759 5760 5760 5759 5759 5758 5757 5756 5755 5753 5751 5749 5747 5744 5742 5740 5738 5736 5733 5731
5725 5725 5726 5726 5726 5726 5727 5728 5730 5732 5734 5736 5737 5739 5740 5742 5743 5745 5746 5747 5748 5749 5750 5750 5750 5750 5750 5750 5749 5748 5746 5745 5743 5742 5740 5738 5735 5733 5730 5728 5725 5723 5720
5715 5714 5714 5714 5714 5713 5714 5714 5716 5718 5720 5722 5724 5726 5727 5729 5731 5733 5735 5736 5738 5738 5739 5739 5740 5740 5741 5740 5740 5738 5737 5735 5734 5732 5730 5727 5725 5722 5719 5717 5714 5711 5708